YO6IKB-10 Weather Reports


time (UTC)temp
F
wind
direction
speed
knots
gust
knots
rain 1hr
in
rain 24hr
in
rain mn
in
humidity
%
barometer
mb
20260507004459 53 225 0.0 0.0 0.00 0.00 0.00 71 1011.2
20260507003959 53 225 0.0 0.0 0.00 0.00 0.00 71 1011.2
20260507003458 53 225 0.0 0.0 0.00 0.00 0.00 71 1011.2
20260507002958 54 225 0.0 0.0 0.00 0.00 0.00 71 1011.0
20260507002458 54 225 0.0 0.0 0.00 0.00 0.00 71 1011.1
20260507001958 54 225 0.0 0.0 0.00 0.00 0.00 70 1011.1
20260507001457 54 225 0.0 1.7 0.00 0.00 0.00 70 1011.0
20260507000957 54 225 0.0 0.0 0.00 0.00 0.00 70 1011.0
20260507000457 54 225 0.0 0.0 0.00 0.00 0.00 71 1011.0
20260506235956 54 225 0.0 0.9 0.00 0.00 0.00 71 1011.0
20260506235456 54 225 0.0 0.0 0.00 0.00 0.00 71 1010.9
20260506234956 54 225 0.0 0.9 0.00 0.00 0.00 71 1010.9
20260506234455 54 225 0.0 0.0 0.00 0.00 0.00 70 1011.0
20260506233955 54 225 0.0 0.0 0.00 0.00 0.00 70 1010.9
20260506233455 54 225 0.0 1.7 0.00 0.00 0.00 70 1011.0
20260506232955 55 225 0.0 1.7 0.00 0.00 0.00 69 1010.9
20260506232454 55 225 0.0 0.0 0.00 0.00 0.00 68 1011.0
20260506231954 55 225 0.0 0.0 0.00 0.00 0.00 68 1010.9
20260506231454 55 225 0.0 0.0 0.00 0.00 0.00 68 1010.9
20260506230953 55 225 0.0 0.9 0.00 0.00 0.00 67 1010.9
20260506230453 55 225 0.0 0.0 0.00 0.00 0.00 66 1010.8
20260506225953 55 225 0.0 0.0 0.00 0.00 0.00 66 1010.8
20260506225453 55 225 0.0 2.6 0.00 0.00 0.00 66 1010.9
20260506224952 56 225 0.9 1.7 0.00 0.00 0.00 65 1010.7
20260506224452 56 225 1.7 3.5 0.00 0.00 0.00 66 1010.8
20260506223952 56 225 0.9 2.6 0.00 0.00 0.00 66 1010.7
20260506223451 57 225 2.6 5.2 0.00 0.00 0.00 64 1010.7
20260506222951 57 202 0.0 2.6 0.00 0.00 0.00 63 1010.7
20260506222451 57 202 0.0 4.3 0.00 0.00 0.00 63 1010.7
20260506221951 57 202 0.9 1.7 0.00 0.00 0.00 62 1010.6
20260506221450 58 180 1.7 1.7 0.00 0.00 0.00 63 1010.7
20260506220950 58 180 0.0 3.5 0.00 0.00 0.00 63 1010.5
20260506220450 58 180 1.7 2.6 0.00 0.00 0.00 63 1010.5
20260506215949 58 180 2.6 3.5 0.00 0.00 0.00 63 1010.5
20260506215449 58 180 2.6 5.2 0.00 0.00 0.00 63 1010.4
20260506214949 59 90 0.9 3.5 0.00 0.00 0.00 62 1010.4
20260506214448 59 90 0.0 2.6 0.00 0.00 0.00 61 1010.3
20260506213948 59 90 2.6 2.6 0.00 0.00 0.00 61 1010.4
20260506213448 60 90 0.9 1.7 0.00 0.00 0.00 60 1010.4
20260506212948 60 67 0.0 0.9 0.00 0.00 0.00 60 1010.3
20260506212447 60 67 0.0 0.9 0.00 0.00 0.00 59 1010.3
20260506211947 60 67 0.0 2.6 0.00 0.00 0.00 59 1010.2
20260506211447 61 67 2.6 2.6 0.00 0.00 0.00 59 1010.2
20260506210946 61 67 0.9 0.9 0.00 0.00 0.00 59 1010.1
20260506210446 61 67 0.0 3.5 0.00 0.00 0.00 58 1010.0
20260506205946 62 67 2.6 2.6 0.00 0.00 0.00 57 1010.1
20260506205446 62 67 0.0 0.0 0.00 0.00 0.00 56 1010.0
20260506204945 63 67 0.0 1.7 0.00 0.00 0.00 56 1010.0
20260506204445 63 67 0.0 0.0 0.00 0.00 0.00 55 1010.0
20260506203945 63 67 0.0 1.7 0.00 0.00 0.00 56 1009.9
20260506203444 63 67 0.9 2.6 0.00 0.00 0.00 56 1009.9
20260506202944 63 67 1.7 2.6 0.00 0.00 0.00 56 1009.7
20260506202444 63 67 1.7 3.5 0.00 0.00 0.00 56 1009.6
20260506201944 63 45 3.5 3.5 0.00 0.00 0.00 56 1009.5
20260506201443 63 45 1.7 3.5 0.00 0.00 0.00 56 1009.5
20260506200943 63 67 2.6 2.6 0.00 0.00 0.00 56 1009.5
20260506200443 63 67 0.0 2.6 0.00 0.00 0.00 56 1009.4
20260506195942 63 45 2.6 2.6 0.00 0.00 0.00 55 1009.5
20260506195442 63 315 0.0 3.5 0.00 0.00 0.00 54 1009.6
20260506194942 63 315 1.7 1.7 0.00 0.00 0.00 55 1009.5
20260506194441 63 0 1.7 1.7 0.00 0.00 0.00 55 1009.4
20260506193941 63 0 1.7 1.7 0.00 0.00 0.00 55 1009.4
20260506193441 63 0 1.7 1.7 0.00 0.00 0.00 54 1009.3
20260506192941 64 315 0.0 0.9 0.00 0.00 0.00 52 1009.4
20260506192440 64 315 0.0 0.9 0.00 0.00 0.00 51 1009.4
20260506191940 64 315 0.0 0.9 0.00 0.00 0.00 51 1009.3
20260506191440 64 315 0.0 3.5 0.00 0.00 0.00 51 1009.3
20260506190939 64 45 0.9 1.7 0.00 0.00 0.00 51 1009.1
20260506190439 64 45 0.0 0.9 0.00 0.00 0.00 51 1009.1
20260506185939 65 45 0.0 1.7 0.00 0.00 0.00 51 1009.1
20260506185438 65 45 0.0 1.7 0.00 0.00 0.00 50 1009.1
20260506184938 66 45 0.0 1.7 0.00 0.00 0.00 49 1008.9
20260506184438 66 67 0.0 0.0 0.00 0.00 0.00 49 1008.9
20260506183938 66 67 0.0 1.7 0.00 0.00 0.00 49 1008.9
20260506183437 66 67 1.7 2.6 0.00 0.00 0.00 48 1008.9
20260506182937 66 22 0.9 2.6 0.00 0.00 0.00 48 1008.9
20260506182437 67 315 0.0 1.7 0.00 0.00 0.00 47 1008.9
20260506181936 67 315 1.7 1.7 0.00 0.00 0.00 47 1008.9
20260506181436 67 315 0.9 1.7 0.00 0.00 0.00 47 1008.9
20260506180936 67 0 0.0 3.5 0.00 0.00 0.00 46 1008.9
20260506180436 67 315 2.6 2.6 0.00 0.00 0.00 46 1009.0
20260506175935 67 45 0.9 1.7 0.00 0.00 0.00 46 1009.0
20260506175435 68 45 0.0 2.6 0.00 0.00 0.00 46 1009.0
20260506174935 68 45 1.7 4.3 0.00 0.00 0.00 45 1009.0
20260506174434 69 292 0.0 1.7 0.00 0.00 0.00 44 1009.0
20260506173934 69 292 0.0 3.5 0.00 0.00 0.00 43 1009.0
20260506173434 30 247 2.6 4.3 0.00 0.00 0.00 43 1009.0
20260506172934 70 247 0.9 4.3 0.00 0.00 0.00 42 1009.0
20260506172433 71 247 2.6 4.3 0.00 0.00 0.00 42 1009.0
20260506171933 71 225 0.0 5.2 0.00 0.00 0.00 41 1009.1
20260506171433 71 292 1.7 2.6 0.00 0.00 0.00 40 1009.1
20260506170932 72 180 0.9 1.7 0.00 0.00 0.00 39 1009.1
20260506170432 72 180 0.0 1.7 0.00 0.00 0.00 39 1009.1
20260506165932 73 180 0.0 3.5 0.00 0.00 0.00 38 1009.0
20260506165431 73 180 1.7 10.4 0.00 0.00 0.00 38 1009.0
20260506164931 73 225 3.5 11.3 0.00 0.00 0.00 38 1009.1
20260506164431 73 202 2.6 9.6 0.00 0.00 0.00 39 1009.0
20260506163931 73 202 7.0 12.2 0.00 0.00 0.00 38 1009.0
20260506163430 74 225 7.8 10.4 0.00 0.00 0.00 39 1009.0
20260506162930 74 202 4.3 8.7 0.00 0.00 0.00 40 1009.0
20260506162430 74 202 3.5 6.1 0.00 0.00 0.00 40 1009.1
20260506161929 74 225 1.7 7.0 0.00 0.00 0.00 40 1009.0
20260506161429 74 247 1.7 12.2 0.00 0.00 0.00 40 1009.1
20260506160929 75 225 10.4 10.4 0.00 0.00 0.00 39 1009.1
20260506160429 75 292 0.9 7.8 0.00 0.00 0.00 39 1009.1
20260506155928 76 225 5.2 12.2 0.00 0.00 0.00 38 1009.1
20260506155428 76 292 7.0 7.0 0.00 0.00 0.00 37 1009.0
20260506154928 77 202 2.6 7.0 0.00 0.00 0.00 36 1009.0
20260506154428 77 202 7.0 12.2 0.00 0.00 0.00 35 1009.1
20260506153927 78 202 6.1 11.3 0.00 0.00 0.00 35 1009.1
20260506153427 79 157 4.3 16.5 0.00 0.00 0.00 34 1009.0
20260506152926 80 225 5.2 13.0 0.00 0.00 0.00 34 1009.0
20260506152426 81 157 1.7 14.8 0.00 0.00 0.00 33 1009.0
20260506151926 82 202 13.9 17.4 0.00 0.00 0.00 33 1009.0
20260506151426 83 202 10.4 15.6 0.00 0.00 0.00 34 1009.0
20260506150925 82 225 6.1 15.6 0.00 0.00 0.00 35 1009.0
20260506150425 82 292 7.0 16.5 0.00 0.00 0.00 36 1009.0
20260506145925 81 225 15.6 17.4 0.00 0.00 0.00 36 1009.0
20260506145424 81 247 10.4 17.4 0.00 0.00 0.00 36 1009.0
20260506144924 81 247 13.9 17.4 0.00 0.00 0.00 35 1009.0
20260506144424 81 202 10.4 17.4 0.00 0.00 0.00 34 1009.0
20260506143924 81 292 7.0 16.5 0.00 0.00 0.00 35 1009.0
20260506143423 80 225 15.6 18.2 0.00 0.00 0.00 34 1009.0
20260506142923 80 225 8.7 18.2 0.00 0.00 0.00 35 1009.0
20260506142423 79 225 7.8 19.1 0.00 0.00 0.00 36 1009.0
20260506141922 79 202 18.2 25.2 0.00 0.00 0.00 36 1009.0
20260506141422 79 225 16.5 22.6 0.00 0.00 0.00 36 1009.0
20260506140922 79 225 8.7 20.9 0.00 0.00 0.00 37 1008.9
20260506140421 79 292 8.7 23.5 0.00 0.00 0.00 37 1009.0
20260506135921 79 225 9.6 18.2 0.00 0.00 0.00 37 1009.0
20260506135421 79 247 7.0 19.1 0.00 0.00 0.00 37 1009.0
20260506134921 79 202 19.1 19.1 0.00 0.00 0.00 37 1009.0
20260506134420 80 225 19.1 19.1 0.00 0.00 0.00 37 1009.0
20260506133920 80 337 3.5 20.9 0.00 0.00 0.00 37 1009.0
20260506133420 80 202 12.2 20.0 0.00 0.00 0.00 37 1009.0
20260506132919 80 247 2.6 16.5 0.00 0.00 0.00 38 1009.0
20260506132419 79 202 13.0 13.0 0.00 0.00 0.00 38 1009.0
20260506131919 79 202 7.0 13.0 0.00 0.00 0.00 37 1008.9
20260506131419 78 292 1.7 5.2 0.00 0.00 0.00 37 1008.9
20260506130918 78 202 4.3 7.8 0.00 0.00 0.00 37 1008.9
20260506130418 78 180 3.5 7.8 0.00 0.00 0.00 36 1008.9
20260506125918 78 180 0.0 6.1 0.00 0.00 0.00 35 1008.9
20260506125417 78 90 1.7 5.2 0.00 0.00 0.00 32 1008.9
20260506124917 79 45 0.0 1.7 0.00 0.00 0.00 30 1008.9
20260506124417 80 45 0.9 5.2 0.00 0.00 0.00 29 1008.9
20260506123916 80 67 0.0 2.6 0.00 0.00 0.00 29 1008.8
20260506123416 80 90 1.7 7.0 0.00 0.00 0.00 28 1008.8
20260506122916 82 90 0.9 7.0 0.00 0.00 0.00 27 1008.8
20260506122416 83 67 5.2 7.0 0.00 0.00 0.00 26 1008.8
20260506121915 84 337 1.7 2.6 0.00 0.00 0.00 29 1008.8
20260506121415 83 292 1.7 3.5 0.00 0.00 0.00 31 1008.8
20260506120915 83 292 0.9 4.3 0.00 0.00 0.00 30 1008.8
20260506120414 82 292 0.0 3.5 0.00 0.00 0.00 30 1008.7
20260506115914 82 337 0.0 6.1 0.00 0.00 0.00 28 1008.7
20260506115414 84 22 2.6 4.3 0.00 0.00 0.00 28 1008.7
20260506114914 85 112 3.5 6.1 0.00 0.00 0.00 29 1008.7
20260506114413 85 337 6.1 6.1 0.00 0.00 0.00 30 1008.7
20260506113913 85 292 1.7 1.7 0.00 0.00 0.00 31 1008.7
20260506113413 85 292 1.7 5.2 0.00 0.00 0.00 32 1008.6
20260506112912 84 315 2.6 2.6 0.00 0.00 0.00 32 1008.6
20260506112412 83 292 1.7 5.2 0.00 0.00 0.00 34 1008.6
20260506111912 82 337 0.9 3.5 0.00 0.00 0.00 34 1008.6
20260506111411 80 292 2.6 5.2 0.00 0.00 0.00 34 1008.7
20260506110911 79 0 0.0 3.5 0.00 0.00 0.00 35 1008.8
20260506110411 78 22 0.0 5.2 0.00 0.00 0.00 34 1008.8
20260506105911 79 45 5.2 7.0 0.00 0.00 0.00 34 1009.1
20260506105410 79 315 0.0 5.2 0.00 0.00 0.00 34 1009.3
20260506104910 79 22 3.5 5.2 0.00 0.00 0.00 34 1009.2
20260506104410 79 292 1.7 7.0 0.00 0.00 0.00 35 1009.5
20260506103909 80 45 1.7 5.2 0.00 0.00 0.00 35 1009.6
20260506103409 80 22 4.3 7.0 0.00 0.00 0.00 36 1009.7
20260506102909 78 292 0.9 3.5 0.00 0.00 0.00 37 1009.8
20260506102409 78 315 0.9 6.1 0.00 0.00 0.00 37 1009.9
20260506101908 77 337 3.5 3.5 0.00 0.00 0.00 37 1010.0
20260506101408 77 45 0.9 5.2 0.00 0.00 0.00 36 1010.0
20260506100908 78 22 0.9 2.6 0.00 0.00 0.00 36 1010.2
20260506100407 79 22 0.9 3.5 0.00 0.00 0.00 36 1010.2
20260506095907 79 0 1.7 7.0 0.00 0.00 0.00 36 1010.3
20260506095407 80 22 3.5 4.3 0.00 0.00 0.00 36 1010.3
20260506094906 79 292 0.9 4.3 0.00 0.00 0.00 38 1010.3
20260506094406 78 22 0.0 5.2 0.00 0.00 0.00 38 1010.5
20260506093906 78 90 3.5 3.5 0.00 0.00 0.00 39 1010.6
20260506093406 78 45 3.5 3.5 0.00 0.00 0.00 40 1010.7
20260506092905 78 0 0.0 2.6 0.00 0.00 0.00 39 1010.6
20260506092405 78 67 0.0 1.7 0.00 0.00 0.00 39 1010.7
20260506091905 79 67 0.9 4.3 0.00 0.00 0.00 39 1010.7
20260506091404 80 45 3.5 3.5 0.00 0.00 0.00 40 1010.7
20260506090904 79 292 0.0 4.3 0.00 0.00 0.00 42 1010.8
20260506090404 78 315 0.0 7.0 0.00 0.00 0.00 42 1010.9
20260506085904 77 292 4.3 4.3 0.00 0.00 0.00 43 1010.9
20260506085403 76 315 0.0 5.2 0.00 0.00 0.00 44 1010.9
20260506084903 75 292 0.0 1.7 0.00 0.00 0.00 48 1010.8
20260506084403 74 22 0.0 1.7 0.00 0.00 0.00 46 1010.8
20260506083902 73 0 0.0 3.5 0.00 0.00 0.00 47 1010.8
20260506083402 73 45 3.5 3.5 0.00 0.00 0.00 47 1010.9
20260506082902 73 45 0.9 4.3 0.00 0.00 0.00 48 1010.9
20260506082402 73 22 3.5 3.5 0.00 0.00 0.00 49 1010.9
20260506081901 73 67 1.7 3.5 0.00 0.00 0.00 48 1010.9
20260506081401 72 112 0.9 4.3 0.00 0.00 0.00 49 1010.9
20260506080901 72 90 2.6 2.6 0.00 0.00 0.00 50 1010.9
20260506080400 71 45 0.9 3.5 0.00 0.00 0.00 50 1010.9
20260506073359 72 22 0.9 3.5 0.00 0.00 0.00 50 1011.1
20260506072858 71 90 0.0 0.9 0.00 0.00 0.00 51 1011.1
20260506072358 70 90 0.0 2.6 0.00 0.00 0.00 51 1011.1
20260506071858 70 90 2.6 3.5 0.00 0.00 0.00 51 1011.1
20260506071357 70 67 1.7 1.7 0.00 0.00 0.00 52 1011.0
20260506070857 70 67 0.0 0.9 0.00 0.00 0.00 51 1011.1
20260506070357 70 67 0.0 1.7 0.00 0.00 0.00 51 1011.1
20260506062354 69 45 3.5 3.5 0.00 0.00 0.00 52 1011.3
20260506061854 69 67 0.0 2.6 0.00 0.00 0.00 53 1011.3
20260506061354 67 67 1.7 2.6 0.00 0.00 0.00 54 1011.3
20260506060854 67 45 0.9 2.6 0.00 0.00 0.00 54 1011.3
20260506060353 66 67 2.6 2.6 0.00 0.00 0.00 56 1011.3
20260506051350 66 337 0.0 0.9 0.00 0.00 0.00 58 1011.4
20260506050850 65 0 0.0 1.7 0.00 0.00 0.00 60 1011.4
20260506050350 64 67 0.0 0.0 0.00 0.00 0.00 60 1011.3
20260506044849 61 67 0.0 0.0 0.00 0.00 0.00 64 1011.3
20260506044349 60 67 0.0 0.0 0.00 0.00 0.00 64 1011.3
20260506043848 60 67 0.0 0.0 0.00 0.00 0.00 66 1011.2
20260506043348 59 67 0.0 0.0 0.00 0.00 0.00 66 1011.2
20260506042848 59 67 0.0 0.9 0.00 0.00 0.00 66 1011.1
20260506042347 59 67 0.0 0.0 0.00 0.00 0.00 69 1011.0
20260506041847 57 67 0.0 0.0 0.00 0.00 0.00 71 1011.1
20260506041347 55 67 0.0 0.0 0.00 0.00 0.00 72 1011.0
20260506040847 54 67 0.0 0.9 0.00 0.00 0.00 72 1011.0
20260506040346 54 67 0.0 0.9 0.00 0.00 0.00 73 1011.0
20260506035846 54 67 0.0 0.0 0.00 0.00 0.00 73 1011.0
20260506035346 54 67 0.0 0.0 0.00 0.00 0.00 74 1011.0
20260506034845 53 67 0.0 0.0 0.00 0.00 0.00 76 1010.9
20260506034345 51 67 0.0 0.0 0.00 0.00 0.00 77 1011.0
20260506033845 50 67 0.0 0.9 0.00 0.00 0.00 78 1010.9
20260506033344 50 67 0.0 0.0 0.00 0.00 0.00 79 1010.9
20260506032844 49 67 0.0 0.0 0.00 0.00 0.00 79 1010.9
20260506032344 48 67 0.0 0.9 0.00 0.00 0.00 79 1010.8
20260506031844 48 67 0.0 0.0 0.00 0.00 0.00 79 1010.8
20260506031343 48 67 0.0 0.0 0.00 0.00 0.00 78 1010.8
20260506030843 48 67 0.0 0.0 0.00 0.00 0.00 78 1010.8
20260506030343 48 67 0.0 0.0 0.00 0.00 0.00 77 1010.7
20260506025842 48 67 0.0 0.0 0.00 0.00 0.00 78 1010.7
20260506025342 49 67 0.0 0.0 0.00 0.00 0.00 77 1010.7
20260506024842 49 67 0.0 0.0 0.00 0.00 0.00 76 1010.6
20260506024342 49 67 0.0 0.0 0.00 0.00 0.00 76 1010.6
20260506023841 49 67 0.0 0.0 0.00 0.00 0.00 77 1010.6
20260506023341 49 67 0.0 0.0 0.00 0.00 0.00 77 1010.6
20260506022841 49 67 0.0 0.0 0.00 0.00 0.00 77 1010.6
20260506022340 50 67 0.0 0.0 0.00 0.00 0.00 77 1010.6
20260506021840 50 67 0.0 1.7 0.00 0.00 0.00 77 1010.5
20260506021340 50 67 1.7 2.6 0.00 0.00 0.00 77 1010.6
20260506020840 50 67 0.9 1.7 0.00 0.00 0.00 77 1010.6
20260506020339 50 67 0.0 0.9 0.00 0.00 0.00 76 1010.6
20260506015839 50 67 0.0 0.9 0.00 0.00 0.00 76 1010.5
20260506015339 50 67 0.0 1.7 0.00 0.00 0.00 76 1010.4
20260506014838 50 90 0.0 0.0 0.00 0.00 0.00 75 1010.5
20260506014338 50 90 0.0 0.0 0.00 0.00 0.00 75 1010.4
20260506013838 50 90 0.0 1.7 0.00 0.00 0.00 75 1010.4
20260506013337 50 90 0.0 0.9 0.00 0.00 0.00 74 1010.6
20260506012837 50 90 0.0 2.6 0.00 0.00 0.00 73 1010.5
20260506012337 51 67 0.0 1.7 0.00 0.00 0.00 73 1010.5
20260506011837 51 67 0.0 2.6 0.00 0.00 0.00 72 1010.5
20260506011336 51 67 1.7 2.6 0.00 0.00 0.00 72 1010.5
20260506010836 51 67 0.0 1.7 0.00 0.00 0.00 72 1010.5
20260506010336 51 67 0.0 0.9 0.00 0.00 0.00 71 1010.5
20260506005835 51 45 0.0 0.0 0.00 0.00 0.00 71 1010.5
20260506005335 51 45 0.0 0.0 0.00 0.00 0.00 71 1010.4
20260506004835 51 45 0.0 0.9 0.00 0.00 0.00 71 1010.4